Retour au catalogue

BPA 3/SL-24

ActifSciencePO
NORAD 39448·PAYLOAD·🇺🇦 Ukraine

Lancé Nov 21, 2013 depuis Dombarovsky

Loading…

Prochains Passages (prochaines 24 heures)

TLE

FraisSource: Space-Track

Époque: Sep 14, 2026, 07:31 UTC

1 39448U 13066AJ  26257.31358312  .00000100  00000-0  55577-4 0  9996
2 39448  97.6884  42.5938 0677893 149.4655 214.7840 13.43262063627851

Suivez BPA 3/SL-24 en temps réel avec AllMySat

Download on the App Store